Location: Ahausen
(50.4985°N, 8.2722°E)
Time: 07:26:58
(UTC+00:00)

USA 238 DEB - Pass Details

Date: 18 September 2020
Orbit: 1006 x 1206 km, 63.4° (Epoch: 15 October)

Event Time Altitude Azimuth Distance (km) Brightness Sun altitude
Rises 19:31:36 0° 316° (NW) 3,933 8.0 -18.9°
Reaches altitude 10° 19:34:14 10° 314° (NW) 3,001 7.2 -19.3°
Maximum altitude 19:41:24 74° 232° (SW) 1,205 4.0 -20.3°
Enters shadow 19:45:39 28° 153° (SSE) 2,048 4.7 -20.9°
